sat.trackr.live / text

‹ back to catalog

STARLINK-30165

NORAD 57457 · 2023-107A

PAYLOAD ACTIVE UNKNOWN

§ Identity

Operator
Country
US
Launch date
2023-07-28
Launch site
AFETR
Launch vehicle
Mass (kg)
RCS (m²)

Purposes: comms

External: N2YO · Heavens-Above · Gunter

§ Orbital elements

Epoch: 2026-09-20T04:57:19.864224Z

Period
94.27 min
Inclination
43.0040°
Eccentricity
0.0001575
Mean motion
15.27583135 rev/d
Perigee alt
482.0 km
Apogee alt
484.1 km
Semi-major
6,861.2 km
B*
1.0223e-4
RAAN
317.7766°
Arg perigee
267.6742°
Mean anomaly
92.3930°
Rev number
17,488

§ Raw data

STARLINK-301651 57457U 23107A   26263.20647991  .00002552  00000+0  10223-3 0  99922 57457  43.0040 317.7766 0001575 267.6742  92.3930 15.27583135174884

JSON: /api/v1/satellites/57457 · /tle

For live sub-satellite position, see the globe view (requires WebGL).

§ Visibility from observer

Set your observer location to see the next 7 days of passes ≥ 10°. The values pass through the URL so the page stays shareable.

No JS? Fill the form by hand. The geolocation button needs JavaScript.